GW0181 Weather Reports


Display with metric or nautical units.
time (UTC)temp
F
wind
direction
speed
MPH
gust
MPH
rain 1hr
in
rain 24hr
in
rain mn
in
humidity
%
barometer
mb
20260507064549 47 0 2.0 5.0 0.00 0.21 0.03 91 1012.9
20260507064030 47 0 1.0 6.0 0.00 0.21 0.03 91 1012.9
20260507063531 47 10 2.0 7.0 0.00 0.21 0.03 91 1012.8
20260507063038 47 0 1.0 9.0 0.00 0.21 0.03 91 1012.8
20260507062530 47 360 3.0 9.0 0.00 0.21 0.03 91 1012.6
20260507062030 47 0 1.0 6.0 0.00 0.21 0.03 91 1012.6
20260507061540 47 0 1.0 9.0 0.00 0.21 0.03 91 1012.6
20260507061030 47 352 4.0 9.0 0.00 0.21 0.03 91 1012.5
20260507060528 47 346 0.0 5.0 0.00 0.21 0.03 91 1012.4
20260507060041 47 345 1.0 7.0 0.00 0.21 0.03 91 1012.4
20260507055531 47 0 2.0 7.0 0.00 0.25 0.03 91 1012.3
20260507055030 47 7 2.0 7.0 0.00 0.25 0.03 91 1012.2
20260507054559 47 326 1.0 7.0 0.00 0.25 0.03 91 1012.1
20260507054034 47 0 2.0 6.0 0.00 0.25 0.03 91 1012.0
20260507053531 47 0 0.0 8.0 0.00 0.25 0.03 91 1012.0
20260507053038 47 0 2.0 9.0 0.00 0.25 0.03 91 1011.9
20260507052532 47 14 3.0 9.0 0.00 0.25 0.03 91 1011.9
20260507052031 47 351 2.0 11.0 0.00 0.25 0.03 91 1011.8
20260507051551 47 2 3.0 11.0 0.00 0.25 0.03 91 1011.8
20260507051033 47 2 1.0 8.0 0.00 0.25 0.03 91 1011.8
20260507050534 47 359 3.0 9.0 0.00 0.25 0.03 91 1011.8
20260507050051 47 278 4.0 9.0 0.00 0.25 0.03 91 1011.6
20260507045531 47 1 1.0 8.0 0.00 0.31 0.03 91 1011.6
20260507045031 47 353 1.0 10.0 0.00 0.31 0.03 91 1011.5
20260507044554 47 294 2.0 10.0 0.01 0.31 0.03 91 1011.5
20260507044030 47 352 2.0 9.0 0.01 0.31 0.03 91 1011.5
20260507043531 47 278 0.0 3.0 0.01 0.31 0.03 91 1011.4
20260507043040 47 325 0.0 6.0 0.01 0.31 0.03 91 1011.3
20260507042531 47 232 1.0 7.0 0.01 0.31 0.03 91 1011.2
20260507042031 47 10 3.0 7.0 0.00 0.30 0.02 91 1011.3
20260507041548 47 338 2.0 7.0 0.00 0.30 0.02 91 1011.1
20260507041030 47 18 2.0 9.0 0.00 0.30 0.02 91 1011.1
20260507040531 47 297 3.0 9.0 0.00 0.30 0.02 91 1011.0
20260507040042 47 355 0.0 6.0 0.00 0.30 0.02 91 1011.0
20260507035527 47 302 0.0 5.0 0.00 0.33 0.02 91 1011.0
20260507035030 47 274 1.0 6.0 0.00 0.33 0.02 91 1011.0
20260507034542 47 0 1.0 6.0 0.00 0.33 0.01 91 1010.9
20260507034030 47 353 1.0 4.0 0.00 0.33 0.01 91 1010.9
20260507033532 47 295 1.0 4.0 0.00 0.33 0.01 91 1010.9
20260507033042 47 285 1.0 4.0 0.00 0.33 0.01 91 1010.9
20260507032530 47 0 0.0 4.0 0.00 0.33 0.01 91 1010.9
20260507032031 47 271 1.0 4.0 0.00 0.33 0.01 91 1010.9
20260507031541 47 296 0.0 8.0 0.00 0.33 0.01 91 1010.8
20260507031031 47 0 1.0 8.0 0.00 0.33 0.01 91 1010.8
20260507030531 47 298 1.0 8.0 0.00 0.33 0.01 91 1010.8
20260507030048 47 0 0.0 6.0 0.00 0.33 0.01 91 1010.7
20260507025528 47 360 1.0 6.0 0.00 0.37 0.01 91 1010.7
20260507025028 47 272 0.0 7.0 0.00 0.37 0.01 91 1010.7
20260507024538 47 333 1.0 7.0 0.00 0.37 0.01 91 1010.5
20260507024034 47 349 1.0 7.0 0.00 0.37 0.01 91 1010.5
20260507023531 47 326 0.0 4.0 0.00 0.37 0.01 91 1010.5
20260507023044 47 347 0.0 6.0 0.00 0.37 0.01 91 1010.5
20260507022530 47 1 1.0 9.0 0.00 0.37 0.01 91 1010.6
20260507022027 47 345 2.0 9.0 0.00 0.37 0.01 91 1010.5
20260507021543 47 310 1.0 6.0 0.00 0.37 0.01 91 1010.5
20260507021027 47 0 1.0 6.0 0.00 0.37 0.01 91 1010.4
20260507020531 47 300 2.0 7.0 0.00 0.37 0.01 91 1010.2
20260507020055 47 0 1.0 7.0 0.00 0.37 0.01 91 1010.3
20260507015530 47 0 2.0 7.0 0.00 0.45 0.01 91 1010.2
20260507015030 47 0 0.0 6.0 0.00 0.45 0.01 91 1010.2
20260507014547 47 342 0.0 5.0 0.00 0.45 0.01 91 1010.2
20260507014032 47 0 1.0 5.0 0.00 0.45 0.01 91 1010.1
20260507013531 47 358 0.0 6.0 0.00 0.45 0.01 91 1010.2
20260507013046 47 0 0.0 6.0 0.00 0.45 0.01 91 1010.2
20260507012530 47 287 0.0 4.0 0.00 0.45 0.01 91 1010.1
20260507012032 47 0 0.0 4.0 0.00 0.45 0.01 91 1010.1
20260507011554 47 0 1.0 3.0 0.00 0.45 0.01 91 1010.0
20260507011031 47 0 0.0 5.0 0.00 0.45 0.01 91 1010.0
20260507010531 47 0 1.0 5.0 0.00 0.44 0.00 91 1010.0
20260507010045 47 0 0.0 5.0 0.00 0.44 0.00 91 1009.9
20260507005533 47 0 1.0 5.0 0.00 0.54 0.00 91 1009.9
20260507005031 47 303 1.0 5.0 0.00 0.54 0.00 91 1009.9
20260507004542 47 0 0.0 5.0 0.00 0.54 0.00 91 1010.0
20260507004031 47 0 1.0 5.0 0.00 0.54 0.00 91 1009.9
20260507003531 47 0 0.0 3.0 0.00 0.54 0.00 91 1009.9
20260507003040 47 0 0.0 4.0 0.00 0.54 0.00 91 1009.9
20260507002530 47 0 1.0 4.0 0.00 0.54 0.00 91 1009.9
20260507002030 47 276 0.0 4.0 0.00 0.54 0.00 91 1009.8
20260507001558 47 276 0.0 6.0 0.00 0.54 0.00 91 1009.8
20260507001032 47 0 1.0 6.0 0.00 0.54 0.00 91 1009.7
20260507000533 47 281 1.0 6.0 0.00 0.54 0.00 91 1009.7
20260507000043 47 0 1.0 8.0 0.00 0.54 0.00 91 1009.7
20260506235531 47 283 1.0 8.0 0.00 0.65 0.00 91 1009.7
20260506235032 47 299 0.0 6.0 0.00 0.65 0.00 91 1009.7
20260506234601 47 0 1.0 7.0 0.00 0.65 0.00 91 1009.7
20260506234031 47 354 2.0 7.0 0.00 0.65 0.00 91 1009.8
20260506233531 47 294 1.0 4.0 0.00 0.65 0.00 91 1009.7
20260506233048 47 295 1.0 7.0 0.00 0.64 0.00 91 1009.8
20260506232530 47 0 1.0 7.0 0.00 0.64 0.00 91 1009.7
20260506232030 47 279 1.0 6.0 0.00 0.64 0.00 91 1009.5
20260506231538 47 328 1.0 6.0 0.00 0.64 0.00 91 1009.5
20260506231032 47 303 0.0 6.0 0.00 0.64 0.00 91 1009.6
20260506230531 47 0 0.0 6.0 0.00 0.64 0.00 91 1009.5
20260506230042 47 295 1.0 6.0 0.00 0.64 0.00 91 1009.5
20260506225530 47 0 0.0 6.0 0.00 0.73 0.00 91 1009.6
20260506225030 47 0 1.0 6.0 0.00 0.73 0.00 90 1009.5
20260506224549 47 285 1.0 6.0 0.00 0.73 0.00 90 1009.4
20260506224030 47 287 1.0 4.0 0.00 0.73 0.00 90 1009.4
20260506223531 47 0 1.0 4.0 0.00 0.73 0.00 90 1009.4
20260506223041 47 0 0.0 5.0 0.00 0.73 0.00 90 1009.4
20260506222531 47 0 0.0 5.0 0.00 0.73 0.00 90 1009.4
20260506222033 47 335 0.0 5.0 0.00 0.73 0.00 90 1009.4
20260506221555 47 0 1.0 5.0 0.00 0.73 0.00 90 1009.4
20260506221030 47 343 0.0 6.0 0.00 0.73 0.00 90 1009.3
20260506220532 47 333 2.0 6.0 0.00 0.73 0.00 90 1009.4
20260506220046 47 0 1.0 4.0 0.00 0.73 0.00 90 1009.3
20260506215530 47 0 0.0 4.0 0.00 0.88 0.73 90 1009.3
20260506215030 47 0 0.0 4.0 0.00 0.88 0.73 90 1009.3
20260506214541 47 0 0.0 4.0 0.00 0.88 0.73 90 1009.3
20260506214031 47 291 1.0 4.0 0.00 0.88 0.73 90 1009.3
20260506213532 47 0 0.0 4.0 0.00 0.88 0.73 90 1009.3
20260506213043 47 0 0.0 4.0 0.00 0.88 0.73 90 1009.3
20260506212530 47 0 0.0 6.0 0.00 0.88 0.73 90 1009.3
20260506212032 47 281 0.0 6.0 0.00 0.88 0.73 90 1009.2
20260506211552 47 0 0.0 6.0 0.00 0.88 0.73 90 1009.2
20260506211030 47 0 0.0 6.0 0.00 0.88 0.73 90 1009.1
20260506210530 47 295 0.0 6.0 0.00 0.88 0.73 90 1009.2
20260506210047 47 0 0.0 6.0 0.00 0.88 0.73 90 1009.1
20260506205530 47 0 0.0 6.0 0.00 0.93 0.73 90 1009.1
20260506205030 47 0 0.0 5.0 0.00 0.93 0.73 90 1009.1
20260506204543 47 320 1.0 5.0 0.00 0.93 0.73 90 1009.1
20260506204031 47 0 1.0 6.0 0.00 0.93 0.73 90 1009.1
20260506203530 47 0 0.0 6.0 0.00 0.93 0.73 90 1009.1
20260506203049 47 314 2.0 6.0 0.00 0.93 0.73 90 1009.0
20260506202531 47 13 1.0 5.0 0.00 0.93 0.73 90 1008.9
20260506202033 47 38 1.0 4.0 0.00 0.93 0.73 90 1009.0
20260506201541 47 310 0.0 7.0 0.00 0.93 0.73 90 1008.9
20260506201032 47 335 0.0 8.0 0.00 0.93 0.73 90 1008.9
20260506200530 47 324 3.0 8.0 0.00 0.92 0.72 90 1008.9
20260506200042 47 345 0.0 6.0 0.00 0.92 0.72 90 1008.8
20260506195530 47 19 1.0 6.0 0.00 1.06 0.72 90 1008.8
20260506195030 47 329 1.0 5.0 0.00 1.06 0.72 90 1008.8
20260506194544 48 328 1.0 6.0 0.00 1.06 0.72 90 1008.8
20260506194031 48 0 1.0 6.0 0.00 1.06 0.72 90 1008.7
20260506193530 48 0 1.0 7.0 0.00 1.06 0.72 90 1008.7
20260506193050 48 6 1.0 7.0 0.00 1.06 0.72 90 1008.7
20260506192532 48 293 1.0 7.0 0.00 1.06 0.72 90 1008.6
20260506192028 48 353 1.0 6.0 0.00 1.06 0.72 90 1008.5
20260506191539 48 270 1.0 6.0 0.01 1.06 0.72 90 1008.4
20260506191031 48 0 0.0 4.0 0.01 1.06 0.72 90 1008.5
20260506190531 48 332 1.0 4.0 0.01 1.06 0.72 90 1008.4
20260506190038 48 0 0.0 5.0 0.00 1.05 0.71 90 1008.3
20260506185531 48 0 0.0 5.0 0.00 1.07 0.71 90 1008.3
20260506185031 48 345 0.0 5.0 0.00 1.07 0.71 90 1008.3
20260506184543 48 0 1.0 5.0 0.00 1.07 0.71 90 1008.1
20260506184032 48 317 0.0 5.0 0.00 1.07 0.71 90 1008.1
20260506183529 48 0 0.0 5.0 0.00 1.07 0.71 90 1008.1
20260506183040 48 0 0.0 5.0 0.00 1.07 0.71 90 1008.1
20260506182530 48 336 0.0 4.0 0.00 1.07 0.71 90 1008.1
20260506182030 48 0 0.0 5.0 0.00 1.07 0.71 90 1008.0
20260506181555 48 0 1.0 7.0 0.00 1.06 0.70 90 1007.9
20260506181031 48 343 2.0 7.0 0.00 1.06 0.70 89 1007.9
20260506180532 48 344 1.0 6.0 0.00 1.06 0.70 89 1007.8
20260506180038 48 0 2.0 7.0 0.00 1.06 0.70 90 1007.8
20260506175530 49 16 2.0 7.0 0.00 1.06 0.70 90 1007.7
20260506175030 49 0 2.0 6.0 0.00 1.06 0.70 90 1007.7
20260506174540 49 330 1.0 6.0 0.00 1.06 0.70 90 1007.7
20260506174035 49 0 0.0 5.0 0.00 1.06 0.70 90 1007.6
20260506173534 49 0 1.0 5.0 0.00 1.06 0.70 90 1007.7
20260506173111 49 0 0.0 7.0 0.00 1.06 0.70 90 1007.5
20260506172532 49 350 3.0 7.0 0.00 1.06 0.70 90 1007.5
20260506172030 49 287 2.0 8.0 0.00 1.06 0.70 90 1007.5
20260506171545 49 311 3.0 10.0 0.00 1.06 0.70 90 1007.4
20260506171032 49 283 4.0 10.0 0.00 1.06 0.70 90 1007.3
20260506170531 49 4 3.0 9.0 0.00 1.06 0.70 90 1007.3
20260506170056 49 0 2.0 9.0 0.00 1.06 0.70 90 1007.3
20260506165530 49 325 1.0 8.0 0.00 1.06 0.70 90 1007.3
20260506165031 49 331 1.0 10.0 0.00 1.06 0.70 90 1007.3
20260506164540 49 344 3.0 10.0 0.00 1.06 0.70 90 1007.3
20260506164034 49 0 4.0 8.0 0.00 1.06 0.70 90 1007.3
20260506163527 49 41 2.0 9.0 0.00 1.06 0.70 90 1007.2
20260506163051 49 352 4.0 9.0 0.00 1.06 0.70 90 1007.2
20260506162532 49 16 0.0 5.0 0.00 1.06 0.70 90 1007.2
20260506162030 49 0 2.0 6.0 0.00 1.06 0.70 90 1007.2
20260506161544 49 343 1.0 6.0 0.01 1.06 0.70 90 1007.2
20260506161032 49 0 1.0 5.0 0.01 1.06 0.70 90 1007.3
20260506160532 49 0 0.0 5.0 0.01 1.06 0.70 90 1007.2
20260506160045 49 55 2.0 9.0 0.00 1.05 0.70 90 1007.2
20260506155531 49 0 3.0 9.0 0.00 1.05 0.70 90 1007.2
20260506155030 49 335 1.0 7.0 0.00 1.05 0.70 90 1007.1
20260506154604 49 0 1.0 9.0 0.00 1.05 0.70 90 1007.2
20260506154031 49 31 3.0 9.0 0.00 1.05 0.70 90 1007.2
20260506153531 49 349 0.0 8.0 0.00 1.05 0.70 90 1007.2
20260506153037 49 34 1.0 9.0 0.01 1.05 0.70 90 1007.1
20260506152530 49 0 3.0 9.0 0.01 1.05 0.70 90 1007.1
20260506152030 49 0 2.0 7.0 0.01 1.05 0.70 90 1007.1
20260506151544 49 357 1.0 6.0 0.00 1.04 0.69 90 1007.2
20260506151031 49 0 1.0 5.0 0.00 1.04 0.69 90 1007.2
20260506150528 49 0 1.0 5.0 0.00 1.04 0.69 90 1007.1
20260506150041 49 16 1.0 6.0 0.00 1.04 0.69 90 1007.0
20260506145533 49 0 1.0 9.0 0.01 1.07 0.69 90 1006.9
20260506145030 49 349 3.0 9.0 0.01 1.07 0.69 90 1007.0
20260506144550 49 0 2.0 8.0 0.01 1.07 0.69 90 1006.9
20260506144031 49 347 2.0 8.0 0.02 1.07 0.69 90 1006.9
20260506143532 49 0 1.0 8.0 0.02 1.07 0.69 90 1007.0
20260506143041 49 0 2.0 8.0 0.01 1.07 0.68 90 1006.9
20260506142532 49 0 0.0 6.0 0.02 1.07 0.68 90 1006.9
20260506142030 49 0 0.0 6.0 0.02 1.07 0.68 90 1006.9
20260506141537 49 308 1.0 5.0 0.02 1.07 0.68 90 1006.9
20260506141032 49 256 0.0 5.0 0.02 1.07 0.68 90 1006.8
20260506140530 49 0 1.0 5.0 0.02 1.07 0.68 90 1006.8
20260506140040 49 31 1.0 5.0 0.02 1.07 0.68 90 1006.8
20260506135531 49 289 0.0 4.0 0.01 1.06 0.67 90 1006.8
20260506135031 49 289 0.0 5.0 0.01 1.06 0.67 90 1006.8
20260506134542 49 297 1.0 5.0 0.01 1.06 0.67 90 1006.8
20260506134031 49 303 1.0 6.0 0.00 1.05 0.66 90 1006.8
20260506133531 49 0 1.0 6.0 0.00 1.05 0.66 90 1006.8
20260506133056 49 21 1.0 4.0 0.00 1.05 0.66 90 1006.8
20260506132530 49 0 1.0 4.0 0.00 1.04 0.66 90 1006.9
20260506132035 48 279 1.0 4.0 0.00 1.04 0.66 90 1006.8
20260506131539 49 269 1.0 4.0 0.00 1.04 0.66 89 1006.8
20260506131032 49 0 0.0 5.0 0.00 1.04 0.66 89 1006.8
20260506130533 49 0 0.0 5.0 0.00 1.04 0.66 90 1006.8
20260506130040 49 0 1.0 5.0 0.00 1.04 0.66 90 1006.8
20260506125530 49 276 0.0 7.0 0.00 1.04 0.66 89 1006.7
20260506125030 49 307 1.0 7.0 0.00 1.04 0.66 90 1006.6
20260506124539 49 299 2.0 8.0 0.00 1.04 0.66 89 1006.7
20260506124031 49 0 1.0 8.0 0.00 1.04 0.66 90 1006.5
20260506123532 49 318 1.0 6.0 0.00 1.04 0.66 90 1006.6
20260506123044 49 12 1.0 7.0 0.00 1.04 0.66 90 1006.6
20260506122531 49 0 1.0 9.0 0.00 1.04 0.66 90 1006.5
20260506122031 49 330 1.0 9.0 0.00 1.04 0.66 89 1006.4
20260506121544 50 287 2.0 9.0 0.00 1.04 0.66 90 1006.4
20260506121031 50 21 1.0 6.0 0.00 1.04 0.66 90 1006.4
20260506120528 50 276 1.0 6.0 0.00 1.04 0.66 90 1006.3
20260506120043 50 318 1.0 7.0 0.00 1.04 0.66 90 1006.1
20260506115531 51 299 2.0 7.0 0.00 1.04 0.66 90 1006.1
20260506115030 51 359 3.0 7.0 0.00 1.04 0.66 90 1006.1
20260506114546 50 0 2.0 7.0 0.00 1.04 0.66 90 1006.0
20260506114032 50 30 2.0 7.0 0.00 1.04 0.66 91 1006.0
20260506113530 50 358 2.0 6.0 0.00 1.04 0.66 91 1006.1
20260506113046 50 25 2.0 7.0 0.00 1.04 0.66 90 1006.1
20260506112531 50 0 2.0 7.0 0.00 1.04 0.66 91 1006.1
20260506112030 50 331 2.0 7.0 0.00 1.04 0.66 91 1006.1
20260506111546 50 0 0.0 8.0 0.00 1.04 0.66 91 1006.1
20260506111031 50 19 2.0 11.0 0.00 1.04 0.66 91 1006.1
20260506110531 50 51 5.0 11.0 0.00 1.04 0.66 91 1006.1
20260506110046 49 354 3.0 9.0 0.00 1.04 0.66 90 1006.0
20260506105531 49 352 1.0 9.0 0.01 1.04 0.66 91 1006.1
20260506105029 49 345 2.0 9.0 0.01 1.04 0.66 91 1006.0
20260506104607 49 356 2.0 9.0 0.01 1.04 0.66 91 1006.0
20260506104033 49 344 4.0 9.0 0.01 1.04 0.66 91 1005.9
20260506103533 49 310 3.0 9.0 0.01 1.04 0.66 91 1006.0
20260506103042 49 304 3.0 7.0 0.01 1.04 0.66 91 1006.0
20260506102533 49 327 1.0 7.0 0.01 1.04 0.66 90 1005.9
20260506102031 50 0 3.0 9.0 0.00 1.03 0.65 91 1005.9
20260506101542 49 355 3.0 9.0 0.00 1.03 0.65 90 1005.8
20260506101032 49 10 4.0 9.0 0.00 1.03 0.65 91 1005.8
20260506100530 49 25 3.0 9.0 0.00 1.03 0.65 90 1005.8
20260506100046 49 335 3.0 10.0 0.00 1.03 0.65 90 1005.7
20260506095530 49 297 4.0 10.0 0.00 1.03 0.64 90 1005.7
20260506095028 49 270 2.0 8.0 0.00 1.03 0.64 90 1005.6
20260506094543 49 308 2.0 8.0 0.00 1.03 0.64 90 1005.7
20260506094029 50 9 2.0 8.0 0.00 1.03 0.64 90 1005.5
20260506093528 50 335 2.0 6.0 0.00 1.03 0.64 90 1005.5
20260506093043 50 347 1.0 7.0 0.00 1.03 0.64 90 1005.6
20260506092531 51 348 2.0 7.0 0.00 1.03 0.64 90 1005.5
20260506092027 52 0 1.0 6.0 0.00 1.03 0.64 90 1005.4
20260506091539 52 0 2.0 8.0 0.01 1.03 0.64 90 1005.4
20260506091035 52 6 3.0 8.0 0.01 1.03 0.64 91 1005.2
20260506090532 52 12 3.0 9.0 0.01 1.03 0.64 91 1005.2
20260506090044 52 43 4.0 9.0 0.02 1.03 0.64 91 1005.3
20260506085532 52 0 3.0 7.0 0.01 1.02 0.63 91 1005.2
20260506085030 52 41 3.0 9.0 0.01 1.02 0.63 91 1005.2
20260506084540 52 59 4.0 10.0 0.01 1.02 0.63 91 1005.1
20260506084033 52 37 5.0 10.0 0.01 1.02 0.63 91 1005.1
20260506083531 52 31 3.0 7.0 0.01 1.02 0.63 91 1005.1
20260506083048 52 14 2.0 5.0 0.02 1.02 0.63 91 1005.1
20260506082532 52 41 3.0 5.0 0.02 1.02 0.63 91 1005.0
20260506082030 52 18 2.0 5.0 0.02 1.02 0.63 91 1005.1
20260506081542 52 38 2.0 8.0 0.02 1.01 0.62 91 1005.0
20260506081032 52 21 3.0 8.0 0.03 1.01 0.62 91 1005.0
20260506080528 51 39 3.0 8.0 0.03 1.01 0.62 91 1004.9
20260506073041 52 13 4.0 8.0 0.04 1.00 0.61 91 1004.8
20260506072535 52 28 2.0 8.0 0.05 1.00 0.61 91 1004.7
20260506072030 51 337 3.0 7.0 0.05 1.00 0.61 91 1004.8
20260506071540 51 337 3.0 6.0 0.05 0.99 0.60 91 1004.8
20260506071028 52 342 0.0 5.0 0.04 0.98 0.59 91 1004.7
20260506070531 52 336 2.0 6.0 0.03 0.97 0.59 91 1004.6